Location: Brivio
(45.7333°N, 9.4500°E)
Time: 17:45:54
(UTC+00:00)

STARLINK-36 - Pass Details

Date: 18 October 2019
Orbit: 548 x 551 km, 53.0° (Epoch: 18 November)

Event Time Altitude Azimuth Distance (km) Brightness Sun altitude
Rises 16:54:09 0° 254° (WSW) 2,710 9.8 -4.6°
Reaches altitude 10° 16:56:26 10° 260° (W) 1,819 8.2 -5.0°
Maximum altitude 17:00:28 51° 337° (NNW) 696 4.3 -5.7°
Drops below altitude 10° 17:04:31 10° 54° (NE) 1,826 5.7 -6.4°
Enters shadow 17:05:26 - 57° (ENE) 2,178 6.1 -6.6°
